Home > Weather > Broome > Past weeks

Flag for Australia Past Weather in Broome, Western Australia, Australia — Yesterday and Last 2 Weeks

Now
75 °F

Mild.


Feels Like: 77 °F
Forecast: 68 / 84 °F
Wind: 6 mph from South

Location: Broome Airport

Current Time: Jun 29, 2016 at 2:58:11 AM

Latest Report: Jun 29, 2016 at 2:00 AM


Visibility: N/A

Pressure: 29.98 "Hg

Humidity: 64%

Dew Point: 62 °F

Location of BroomeLocation

Past Weather in Broome — Graph

°F

Broome Temperature Yesterday

Maximum temperature yesterday: 91 °F (at 2:00 PM)
Minimum temperature yesterday: 62 °F (at 6:00 AM)
Average temperature yesterday: 76 °F

High & Low Weather Summary for the Past Weeks

 TemperatureHumidityPressure
High91 °F (Jun 28, 2:00 PM)98% (Jun 23, 12:00 AM)30.01 "Hg (Jun 23, 12:00 AM)
Low56 °F (Jun 20, 5:00 AM)14% (Jun 20, 2:00 PM)29.79 "Hg (Jun 17, 3:00 PM)
Average75 °F60%29.91 "Hg
* Reported Jun 14 12:00 AM — Jun 29 12:00 AM, Broome, Weather by CustomWeather, © 2016

Note: Actual official high and low records may vary slightly from our data, if they occured in-between our weather recording intervals... More about our weather records

Advertising

Broome Weather History for the Previous 24 Hours

Scroll right to see more
 ConditionsComfort  
Time TempWeatherWind HumidityBarometerVisibility
12:00 AM
Wed, Jun 29
75 °FMild.7 mph80%30.00 "HgN/A
11:00 PM
Tue, Jun 28
75 °FMild.6 mph90%30.01 "HgN/A
9:00 PM75 °FMild.No wind87%30.01 "HgN/A
8:00 PM77 °FMild.3 mph82%30.00 "HgN/A
6:00 PM79 °FWarm.5 mph72%29.95 "HgN/A
5:00 PM82 °FWarm.9 mph50%29.93 "HgN/A
3:00 PM90 °FHot.10 mph28%29.90 "HgN/A
2:00 PM91 °FHot.9 mph28%29.91 "HgN/A
12:00 PM89 °FHot.7 mph26%29.93 "HgN/A
11:00 AM87 °FPleasantly warm.5 mph29%29.96 "HgN/A
9:00 AM78 °FPleasantly warm.10 mph31%29.98 "HgN/A
8:00 AM73 °FMild.8 mph34%29.98 "HgN/A
6:00 AM62 °FMild.5 mph56%29.95 "HgN/A
5:00 AM64 °FMild.6 mph55%29.93 "HgN/A
3:00 AM65 °FMild.7 mph57%29.92 "HgN/A
2:00 AM63 °FMild.7 mph60%29.93 "HgN/A
Weather by CustomWeather, © 2016

See weather overviewHow to use our weather pages